This demonstration page uses our WeatherBlox Daily Observations layout. Learn more.

Left ArrowRight Arrow

41.12389, -100.76542

Hourly Observations for January 17, 2018

Temp ( °F °C ) Dew Point ( °F °C ) Humidity (%) Winds ( mph kmh ) Pressure ( in mb ) Visibility ( mi km ) Precip ( " mm )
12:53 am 00:53 Clear 11 -11.7 -2 -18.9 55 55 S 9 15 30.55 1035 10 16 0.00 0.00
1:53 am 01:53 Clear 10 -12.2 -2 -18.9 58 58 VRB 5 7 30.52 1034 10 16 0.00 0.00
2:53 am 02:53 Clear 8 -13.3 -2 -18.9 63 63 S 6 9 30.53 1034 10 16 0.00 0.00
3:53 am 03:53 Clear 7 -13.9 -2 -18.9 66 66 S 5 7 30.51 1033 10 16 0.00 0.00
4:53 am 04:53 Clear 7 -13.9 -2 -18.9 66 66 SSW 6 9 30.50 1033 10 16 0.00 0.00
5:53 am 05:53 Clear 8 -13.3 -2 -18.9 63 63 SSW 8 13 30.49 1032 10 16 0.00 0.00
6:53 am 06:53 Clear 6 -14.4 -2 -18.9 69 69 S 3 6 30.50 1033 10 16 0.00 0.00
7:53 am 07:53 Clear 6 -14.4 -2 -18.9 69 69 WSW 3 6 30.50 1033 10 16 0.00 0.00
8:53 am 08:53 Sunny 8 -13.3 1 -17.2 73 73 Calm 30.49 1033 10 16 0.00 0.00
9:53 am 09:53 Sunny 13 -10.6 3 -16.1 64 64 W 7 11 30.49 1033 10 16 0.00 0.00
10:53 am 10:53 Sunny 19 -7.2 6 -14.4 57 57 W 6 9 30.50 1033 10 16 0.00 0.00
11:53 am 11:53 Sunny 25 -3.9 10 -12.2 53 53 Calm 30.47 1032 10 16 0.00 0.00
12:53 pm 12:53 Sunny 32 0 13 -10.6 45 45 VRB 3 6 30.41 1030 10 16 0.00 0.00
1:53 pm 13:53 Sunny 35 1.7 16 -8.9 46 46 Calm 30.39 1029 10 16 0.00 0.00
2:53 pm 14:53 Sunny 38 3.3 18 -7.8 44 44 SSW 5 7 30.37 1028 10 16 0.00 0.00
3:53 pm 15:53 Sunny 39 3.9 20 -6.7 46 46 SSW 6 9 30.37 1028 10 16 0.00 0.00
4:53 pm 16:53 Sunny 37 2.8 20 -6.7 50 50 SW 6 9 30.37 1029 10 16 0.00 0.00
5:53 pm 17:53 Clear 32 0 18 -7.8 56 56 WSW 3 6 30.38 1029 10 16 0.00 0.00
6:53 pm 18:53 Clear 25 -3.9 16 -8.9 69 69 E 3 6 30.39 1029 10 16 0.00 0.00
7:53 pm 19:53 Clear 25 -3.9 17 -8.3 72 72 W 3 6 30.39 1029 10 16 0.00 0.00
8:53 pm 20:53 Clear 20 -6.7 15 -9.4 81 81 ESE 3 6 30.37 1029 10 16 0.00 0.00
9:53 pm 21:53 Clear 18 -7.8 13 -10.6 81 81 Calm 30.35 1028 10 16 0.00 0.00
10:53 pm 22:53 Clear 16 -8.9 11 -11.7 80 80 NW 7 11 30.33 1027 10 16 0.00 0.00
11:53 pm 23:53 Clear 16 -8.9 11 -11.7 80 80 NW 3 6 30.30 1026 10 16 0.00 0.00

Powered by AerisWeather